contact:dominique.lefevre@mio.osupytheas.fr, maurice.libes@osupytheas.fr, didier.mallarino@osupytheas.fr
Project:EMSO http://www.emso-fr.org/EMSO-France
Depth: 2436.0 m
Title:EMSO Ligure Ouest : Data MII capteur MICROCAT
DateTime_Computer,Latitude,Longitude,Temperature,Conductivity,Pressure,DateTime_Instrument
DateTime_Computer,Latitude,Longitude,degC,S m-1,dbar,DateTime_Instrument
2019-12-19T00:00:07Z,42.805,6.029,13.2961,4.59969,2470.03,2019-12-19T02:00:37Z
2019-12-19T00:03:10Z,42.805,6.029,13.2965,4.59971,2470.017,2019-12-19T02:03:40Z
2019-12-19T00:06:13Z,42.805,6.029,13.2959,4.59971,2469.993,2019-12-19T02:06:44Z
2019-12-19T00:09:17Z,42.805,6.029,13.2967,4.59976,2470.007,2019-12-19T02:09:47Z
2019-12-19T00:12:20Z,42.805,6.029,13.2971,4.59971,2470.017,2019-12-19T02:12:50Z
2019-12-19T00:15:23Z,42.805,6.029,13.2965,4.59973,2469.993,2019-12-19T02:15:53Z
2019-12-19T00:18:26Z,42.805,6.029,13.2967,4.59970,2469.993,2019-12-19T02:18:57Z
2019-12-19T00:21:29Z,42.805,6.029,13.2971,4.59972,2470.007,2019-12-19T02:22:00Z
2019-12-19T00:24:33Z,42.805,6.029,13.2969,4.59971,2470.04,2019-12-19T02:25:03Z
2019-12-19T00:27:36Z,42.805,6.029,13.2970,4.59980,2470.007,2019-12-19T02:28:06Z
2019-12-19T00:30:39Z,42.805,6.029,13.2967,4.59973,2470.017,2019-12-19T02:31:09Z
2019-12-19T00:33:42Z,42.805,6.029,13.2964,4.59966,2470.007,2019-12-19T02:34:13Z
2019-12-19T00:36:46Z,42.805,6.029,13.2966,4.59970,2470.017,2019-12-19T02:37:16Z
2019-12-19T00:39:49Z,42.805,6.029,13.2967,4.59970,2470.007,2019-12-19T02:40:19Z
2019-12-19T00:42:52Z,42.805,6.029,13.2967,4.59972,2469.993,2019-12-19T02:43:22Z
2019-12-19T00:45:55Z,42.805,6.029,13.2968,4.59972,2469.993,2019-12-19T02:46:26Z
2019-12-19T00:48:58Z,42.805,6.029,13.2966,4.59971,2470.017,2019-12-19T02:49:29Z
2019-12-19T00:52:02Z,42.805,6.029,13.2968,4.59971,2469.993,2019-12-19T02:52:32Z
2019-12-19T00:55:05Z,42.805,6.029,13.2964,4.59970,2470.017,2019-12-19T02:55:35Z
2019-12-19T00:58:08Z,42.805,6.029,13.2967,4.59969,2469.993,2019-12-19T02:58:38Z
2019-12-19T01:01:11Z,42.805,6.029,13.2970,4.59975,2469.984,2019-12-19T03:01:42Z
2019-12-19T01:04:14Z,42.805,6.029,13.2967,4.59970,2469.993,2019-12-19T03:04:45Z
2019-12-19T01:07:18Z,42.805,6.029,13.2966,4.59971,2470.007,2019-12-19T03:07:48Z
2019-12-19T01:10:21Z,42.805,6.029,13.2963,4.59970,2469.993,2019-12-19T03:10:51Z
2019-12-19T01:13:24Z,42.805,6.029,13.2965,4.59976,2470.017,2019-12-19T03:13:54Z
2019-12-19T01:16:27Z,42.805,6.029,13.2967,4.59971,2470.007,2019-12-19T03:16:58Z
2019-12-19T01:19:30Z,42.805,6.029,13.2964,4.59973,2469.993,2019-12-19T03:20:01Z
2019-12-19T01:22:34Z,42.805,6.029,13.2970,4.59970,2469.993,2019-12-19T03:23:04Z
2019-12-19T01:25:37Z,42.805,6.029,13.2964,4.59964,2469.97,2019-12-19T03:26:07Z
2019-12-19T01:28:40Z,42.805,6.029,13.2965,4.59966,2469.984,2019-12-19T03:29:10Z
2019-12-19T01:31:43Z,42.805,6.029,13.2962,4.59966,2470.017,2019-12-19T03:32:14Z
2019-12-19T01:34:47Z,42.805,6.029,13.2968,4.59967,2469.993,2019-12-19T03:35:17Z
2019-12-19T01:37:50Z,42.805,6.029,13.2961,4.59964,2469.993,2019-12-19T03:38:20Z
2019-12-19T01:40:53Z,42.805,6.029,13.2967,4.59967,2470.007,2019-12-19T03:41:23Z
2019-12-19T01:43:56Z,42.805,6.029,13.2967,4.59968,2470.007,2019-12-19T03:44:26Z
2019-12-19T01:46:59Z,42.805,6.029,13.2967,4.59969,2470.03,2019-12-19T03:47:30Z
2019-12-19T01:50:03Z,42.805,6.029,13.2966,4.59967,2470.007,2019-12-19T03:50:33Z
2019-12-19T01:53:06Z,42.805,6.029,13.2966,4.59966,2469.993,2019-12-19T03:53:36Z
2019-12-19T01:56:09Z,42.805,6.029,13.2962,4.59967,2470.007,2019-12-19T03:56:39Z
2019-12-19T01:59:12Z,42.805,6.029,13.2961,4.59972,2470.007,2019-12-19T03:59:43Z
2019-12-19T02:02:16Z,42.805,6.029,13.2966,4.59968,2470.007,2019-12-19T04:02:46Z
2019-12-19T02:05:19Z,42.805,6.029,13.2967,4.59970,2470.007,2019-12-19T04:05:49Z
2019-12-19T02:08:22Z,42.805,6.029,13.2965,4.59975,2469.97,2019-12-19T04:08:52Z
2019-12-19T02:11:26Z,42.805,6.029,13.2964,4.59966,2469.97,2019-12-19T04:11:56Z
2019-12-19T02:14:29Z,42.805,6.029,13.2967,4.59967,2469.993,2019-12-19T04:14:59Z
2019-12-19T02:17:32Z,42.805,6.029,13.2961,4.59966,2469.947,2019-12-19T04:18:02Z
2019-12-19T02:20:35Z,42.805,6.029,13.2964,4.59968,2470.007,2019-12-19T04:21:05Z
2019-12-19T02:23:38Z,42.805,6.029,13.2966,4.59973,2469.984,2019-12-19T04:24:09Z
2019-12-19T02:26:42Z,42.805,6.029,13.2966,4.59967,2469.984,2019-12-19T04:27:12Z
2019-12-19T02:29:45Z,42.805,6.029,13.2964,4.59971,2469.97,2019-12-19T04:30:15Z
2019-12-19T02:32:48Z,42.805,6.029,13.2961,4.59970,2469.97,2019-12-19T04:33:18Z
2019-12-19T02:35:51Z,42.805,6.029,13.2966,4.59972,2470.03,2019-12-19T04:36:22Z
2019-12-19T02:38:54Z,42.805,6.029,13.2964,4.59966,2469.984,2019-12-19T04:39:25Z
2019-12-19T02:41:58Z,42.805,6.029,13.2968,4.59972,2469.984,2019-12-19T04:42:28Z
2019-12-19T02:45:01Z,42.805,6.029,13.2967,4.59975,2469.97,2019-12-19T04:45:31Z
2019-12-19T02:48:04Z,42.805,6.029,13.2964,4.59968,2469.984,2019-12-19T04:48:34Z
2019-12-19T02:51:07Z,42.805,6.029,13.2967,4.59969,2469.97,2019-12-19T04:51:38Z
2019-12-19T02:54:10Z,42.805,6.029,13.2966,4.59969,2469.984,2019-12-19T04:54:41Z
2019-12-19T02:57:14Z,42.805,6.029,13.2965,4.59972,2469.97,2019-12-19T04:57:44Z
2019-12-19T03:00:17Z,42.805,6.029,13.2966,4.59972,2469.947,2019-12-19T05:00:47Z
2019-12-19T03:03:20Z,42.805,6.029,13.2963,4.59976,2469.97,2019-12-19T05:03:50Z
2019-12-19T03:06:23Z,42.805,6.029,13.2968,4.59971,2469.97,2019-12-19T05:06:54Z
2019-12-19T03:09:27Z,42.805,6.029,13.2965,4.59975,2469.97,2019-12-19T05:09:57Z
2019-12-19T03:12:30Z,42.805,6.029,13.2969,4.59984,2470.007,2019-12-19T05:13:00Z
2019-12-19T03:15:33Z,42.805,6.029,13.2966,4.59976,2469.96,2019-12-19T05:16:03Z
2019-12-19T03:18:36Z,42.805,6.029,13.2967,4.59969,2469.947,2019-12-19T05:19:07Z
2019-12-19T03:21:39Z,42.805,6.029,13.2972,4.59977,2469.947,2019-12-19T05:22:10Z
2019-12-19T03:24:43Z,42.805,6.029,13.2967,4.59971,2469.984,2019-12-19T05:25:13Z
2019-12-19T03:27:46Z,42.805,6.029,13.2965,4.59969,2469.96,2019-12-19T05:28:16Z
2019-12-19T03:30:49Z,42.805,6.029,13.2967,4.59970,2469.984,2019-12-19T05:31:20Z
2019-12-19T03:33:52Z,42.805,6.029,13.2963,4.59968,2469.97,2019-12-19T05:34:23Z
2019-12-19T03:36:56Z,42.805,6.029,13.2965,4.59968,2469.947,2019-12-19T05:37:26Z
2019-12-19T03:39:59Z,42.805,6.029,13.2968,4.59978,2469.947,2019-12-19T05:40:29Z
2019-12-19T03:43:02Z,42.805,6.029,13.2968,4.59973,2469.97,2019-12-19T05:43:32Z
2019-12-19T03:46:05Z,42.805,6.029,13.2966,4.59983,2469.947,2019-12-19T05:46:36Z
2019-12-19T03:49:09Z,42.805,6.029,13.2967,4.59980,2469.97,2019-12-19T05:49:39Z
2019-12-19T03:52:12Z,42.805,6.029,13.2968,4.59981,2469.947,2019-12-19T05:52:42Z
2019-12-19T03:55:15Z,42.805,6.029,13.2968,4.59976,2469.937,2019-12-19T05:55:45Z
2019-12-19T03:58:18Z,42.805,6.029,13.2967,4.59970,2469.937,2019-12-19T05:58:49Z
2019-12-19T04:01:21Z,42.805,6.029,13.2967,4.59983,2469.947,2019-12-19T06:01:52Z
2019-12-19T04:04:25Z,42.805,6.029,13.2965,4.59971,2469.947,2019-12-19T06:04:55Z
2019-12-19T04:07:28Z,42.805,6.029,13.2967,4.59974,2469.984,2019-12-19T06:07:58Z
2019-12-19T04:10:31Z,42.805,6.029,13.2971,4.59986,2469.947,2019-12-19T06:11:01Z
2019-12-19T04:13:34Z,42.805,6.029,13.2964,4.59967,2469.97,2019-12-19T06:14:05Z
2019-12-19T04:16:37Z,42.805,6.029,13.2964,4.59970,2469.914,2019-12-19T06:17:08Z
2019-12-19T04:19:41Z,42.805,6.029,13.2965,4.59970,2469.96,2019-12-19T06:20:11Z
2019-12-19T04:22:44Z,42.805,6.029,13.2971,4.59980,2469.923,2019-12-19T06:23:14Z
2019-12-19T04:25:47Z,42.805,6.029,13.2972,4.59972,2469.937,2019-12-19T06:26:17Z
2019-12-19T04:28:50Z,42.805,6.029,13.2964,4.59971,2469.923,2019-12-19T06:29:21Z
2019-12-19T04:31:53Z,42.805,6.029,13.2979,4.59981,2469.96,2019-12-19T06:32:24Z
2019-12-19T04:34:56Z,42.805,6.029,13.2968,4.59979,2469.923,2019-12-19T06:35:27Z
2019-12-19T04:38:00Z,42.805,6.029,13.2974,4.59987,2469.9,2019-12-19T06:38:30Z
2019-12-19T04:41:03Z,42.805,6.029,13.2962,4.59967,2469.9,2019-12-19T06:41:33Z
2019-12-19T04:44:06Z,42.805,6.029,13.2967,4.59973,2469.923,2019-12-19T06:44:37Z
2019-12-19T04:47:09Z,42.805,6.029,13.2964,4.59966,2469.923,2019-12-19T06:47:40Z
2019-12-19T04:50:13Z,42.805,6.029,13.2966,4.59967,2469.914,2019-12-19T06:50:43Z
2019-12-19T04:53:16Z,42.805,6.029,13.2964,4.59972,2469.947,2019-12-19T06:53:46Z
2019-12-19T04:56:19Z,42.805,6.029,13.2964,4.59980,2469.914,2019-12-19T06:56:49Z
2019-12-19T04:59:22Z,42.805,6.029,13.2963,4.59973,2469.937,2019-12-19T06:59:52Z
2019-12-19T05:02:25Z,42.805,6.029,13.2964,4.59970,2469.96,2019-12-19T07:02:56Z
2019-12-19T05:05:28Z,42.805,6.029,13.2964,4.59975,2469.923,2019-12-19T07:05:59Z
2019-12-19T05:08:32Z,42.805,6.029,13.2971,4.59971,2469.947,2019-12-19T07:09:02Z
2019-12-19T05:11:35Z,42.805,6.029,13.2972,4.59981,2469.923,2019-12-19T07:12:05Z
2019-12-19T05:14:38Z,42.805,6.029,13.2971,4.59986,2469.937,2019-12-19T07:15:08Z
2019-12-19T05:17:41Z,42.805,6.029,13.2967,4.59981,2469.937,2019-12-19T07:18:12Z
2019-12-19T05:20:44Z,42.805,6.029,13.2971,4.59978,2469.96,2019-12-19T07:21:15Z
2019-12-19T05:23:48Z,42.805,6.029,13.2961,4.59968,2469.9,2019-12-19T07:24:18Z
2019-12-19T05:26:51Z,42.805,6.029,13.2971,4.59969,2469.9,2019-12-19T07:27:21Z
2019-12-19T05:29:54Z,42.805,6.029,13.2967,4.59981,2469.923,2019-12-19T07:30:25Z
2019-12-19T05:32:57Z,42.805,6.029,13.2971,4.59991,2469.96,2019-12-19T07:33:28Z
2019-12-19T05:36:01Z,42.805,6.029,13.2968,4.59983,2469.96,2019-12-19T07:36:31Z
2019-12-19T05:39:04Z,42.805,6.029,13.2965,4.59970,2469.9,2019-12-19T07:39:34Z
2019-12-19T05:42:07Z,42.805,6.029,13.2967,4.59972,2469.937,2019-12-19T07:42:38Z
2019-12-19T05:45:10Z,42.805,6.029,13.2967,4.59969,2469.923,2019-12-19T07:45:41Z
2019-12-19T05:48:13Z,42.805,6.029,13.2969,4.59968,2469.923,2019-12-19T07:48:44Z
2019-12-19T05:51:17Z,42.805,6.029,13.2967,4.59973,2469.923,2019-12-19T07:51:47Z
2019-12-19T05:54:20Z,42.805,6.029,13.2975,4.59984,2469.937,2019-12-19T07:54:50Z
2019-12-19T05:57:23Z,42.805,6.029,13.2969,4.59976,2469.9,2019-12-19T07:57:54Z
2019-12-19T06:00:26Z,42.805,6.029,13.2965,4.59970,2469.923,2019-12-19T08:00:57Z
2019-12-19T06:03:29Z,42.805,6.029,13.2968,4.59978,2469.96,2019-12-19T08:04:00Z
2019-12-19T06:06:33Z,42.805,6.029,13.2962,4.59967,2469.876,2019-12-19T08:07:03Z
2019-12-19T06:09:36Z,42.805,6.029,13.2967,4.59976,2469.923,2019-12-19T08:10:06Z
2019-12-19T06:12:39Z,42.805,6.029,13.2964,4.59981,2469.923,2019-12-19T08:13:09Z
2019-12-19T06:15:42Z,42.805,6.029,13.2972,4.59990,2469.914,2019-12-19T08:16:13Z
2019-12-19T06:18:45Z,42.805,6.029,13.2972,4.59976,2469.923,2019-12-19T08:19:16Z
2019-12-19T06:21:49Z,42.805,6.029,13.2964,4.59972,2469.923,2019-12-19T08:22:19Z
2019-12-19T06:24:52Z,42.805,6.029,13.2968,4.59983,2469.9,2019-12-19T08:25:22Z
2019-12-19T06:27:55Z,42.805,6.029,13.2970,4.59971,2469.923,2019-12-19T08:28:25Z
2019-12-19T06:30:58Z,42.805,6.029,13.2972,4.59974,2469.914,2019-12-19T08:31:29Z
2019-12-19T06:34:02Z,42.805,6.029,13.2964,4.59972,2469.914,2019-12-19T08:34:32Z
2019-12-19T06:37:05Z,42.805,6.029,13.2967,4.59978,2469.9,2019-12-19T08:37:35Z
2019-12-19T06:40:08Z,42.805,6.029,13.2967,4.59976,2469.914,2019-12-19T08:40:38Z
2019-12-19T06:43:11Z,42.805,6.029,13.2968,4.59994,2469.914,2019-12-19T08:43:41Z
2019-12-19T06:46:14Z,42.805,6.029,13.2967,4.59976,2469.914,2019-12-19T08:46:45Z
2019-12-19T06:49:18Z,42.805,6.029,13.2967,4.59978,2469.9,2019-12-19T08:49:48Z
2019-12-19T06:52:21Z,42.805,6.029,13.2964,4.59983,2469.923,2019-12-19T08:52:51Z
2019-12-19T06:55:24Z,42.805,6.029,13.2973,4.59983,2469.914,2019-12-19T08:55:54Z
2019-12-19T06:58:27Z,42.805,6.029,13.2970,4.59976,2469.937,2019-12-19T08:58:57Z
2019-12-19T07:01:30Z,42.805,6.029,13.2971,4.59978,2469.876,2019-12-19T09:02:01Z
2019-12-19T07:04:33Z,42.805,6.029,13.2963,4.59973,2469.876,2019-12-19T09:05:04Z
2019-12-19T07:07:37Z,42.805,6.029,13.2968,4.59988,2469.9,2019-12-19T09:08:07Z
2019-12-19T07:10:40Z,42.805,6.029,13.2971,4.59976,2469.876,2019-12-19T09:11:10Z
2019-12-19T07:13:43Z,42.805,6.029,13.2967,4.59988,2469.937,2019-12-19T09:14:13Z
2019-12-19T07:16:46Z,42.805,6.029,13.2968,4.59970,2469.937,2019-12-19T09:17:17Z
2019-12-19T07:19:50Z,42.805,6.029,13.2972,4.59978,2469.914,2019-12-19T09:20:20Z
2019-12-19T07:22:53Z,42.805,6.029,13.2971,4.59992,2469.9,2019-12-19T09:23:23Z
2019-12-19T07:25:56Z,42.805,6.029,13.2971,4.59986,2469.876,2019-12-19T09:26:26Z
2019-12-19T07:28:59Z,42.805,6.029,13.2973,4.59979,2469.9,2019-12-19T09:29:29Z
2019-12-19T07:32:02Z,42.805,6.029,13.2974,4.59973,2469.9,2019-12-19T09:32:33Z
2019-12-19T07:35:05Z,42.805,6.029,13.2966,4.59973,2469.876,2019-12-19T09:35:36Z
2019-12-19T07:38:09Z,42.805,6.029,13.2964,4.59972,2469.9,2019-12-19T09:38:39Z
2019-12-19T07:41:12Z,42.805,6.029,13.2967,4.59974,2469.89,2019-12-19T09:41:42Z
2019-12-19T07:44:15Z,42.805,6.029,13.2969,4.59974,2469.923,2019-12-19T09:44:45Z
2019-12-19T07:47:18Z,42.805,6.029,13.2974,4.59992,2469.9,2019-12-19T09:47:49Z
2019-12-19T07:50:21Z,42.805,6.029,13.2969,4.59978,2469.923,2019-12-19T09:50:52Z
2019-12-19T07:53:25Z,42.805,6.029,13.2971,4.59978,2469.923,2019-12-19T09:53:55Z
2019-12-19T07:56:28Z,42.805,6.029,13.2968,4.59972,2469.9,2019-12-19T09:56:58Z
2019-12-19T07:59:31Z,42.805,6.029,13.2975,4.59973,2469.923,2019-12-19T10:00:01Z
2019-12-19T08:02:34Z,42.805,6.029,13.2977,4.59981,2469.923,2019-12-19T10:03:05Z
2019-12-19T08:05:37Z,42.805,6.029,13.2967,4.59976,2469.9,2019-12-19T10:06:08Z
2019-12-19T08:08:41Z,42.805,6.029,13.2963,4.59972,2469.9,2019-12-19T10:09:11Z
2019-12-19T08:11:44Z,42.805,6.029,13.2967,4.59976,2469.937,2019-12-19T10:12:14Z
2019-12-19T08:14:47Z,42.805,6.029,13.2968,4.59975,2469.914,2019-12-19T10:15:17Z
2019-12-19T08:17:50Z,42.805,6.029,13.2966,4.59972,2469.923,2019-12-19T10:18:21Z
2019-12-19T08:20:54Z,42.805,6.029,13.2967,4.59973,2469.9,2019-12-19T10:21:24Z
2019-12-19T08:23:57Z,42.805,6.029,13.2972,4.59974,2469.947,2019-12-19T10:24:27Z
2019-12-19T08:27:00Z,42.805,6.029,13.2966,4.59976,2469.947,2019-12-19T10:27:30Z
2019-12-19T08:30:03Z,42.805,6.029,13.2973,4.59981,2469.923,2019-12-19T10:30:33Z
2019-12-19T08:33:06Z,42.805,6.029,13.2967,4.59978,2469.947,2019-12-19T10:33:37Z
2019-12-19T08:36:10Z,42.805,6.029,13.2971,4.59973,2469.947,2019-12-19T10:36:40Z
2019-12-19T08:39:13Z,42.805,6.029,13.2971,4.59981,2469.96,2019-12-19T10:39:43Z
2019-12-19T08:42:16Z,42.805,6.029,13.2971,4.59973,2469.947,2019-12-19T10:42:46Z
2019-12-19T08:45:19Z,42.805,6.029,13.2967,4.59971,2469.923,2019-12-19T10:45:49Z
2019-12-19T08:48:22Z,42.805,6.029,13.2969,4.59976,2469.984,2019-12-19T10:48:53Z
2019-12-19T08:51:25Z,42.805,6.029,13.2971,4.59979,2469.947,2019-12-19T10:51:56Z
2019-12-19T08:54:29Z,42.805,6.029,13.2967,4.59975,2469.937,2019-12-19T10:54:59Z
2019-12-19T08:57:32Z,42.805,6.029,13.2965,4.59979,2469.923,2019-12-19T10:58:02Z
2019-12-19T09:00:35Z,42.805,6.029,13.2971,4.59980,2469.984,2019-12-19T11:01:06Z
2019-12-19T09:03:38Z,42.805,6.029,13.2969,4.59971,2469.947,2019-12-19T11:04:09Z
2019-12-19T09:06:42Z,42.805,6.029,13.2967,4.59981,2469.96,2019-12-19T11:07:12Z
2019-12-19T09:09:45Z,42.805,6.029,13.2976,4.59978,2469.97,2019-12-19T11:10:15Z
2019-12-19T09:12:48Z,42.805,6.029,13.2973,4.59989,2469.96,2019-12-19T11:13:18Z
2019-12-19T09:15:51Z,42.805,6.029,13.2970,4.59983,2469.993,2019-12-19T11:16:21Z
2019-12-19T09:18:54Z,42.805,6.029,13.2971,4.60002,2469.97,2019-12-19T11:19:25Z
2019-12-19T09:21:57Z,42.805,6.029,13.2968,4.59979,2469.993,2019-12-19T11:22:28Z
2019-12-19T09:25:01Z,42.805,6.029,13.2969,4.59978,2469.97,2019-12-19T11:25:31Z
2019-12-19T09:28:04Z,42.805,6.029,13.2968,4.59981,2469.984,2019-12-19T11:28:34Z
2019-12-19T09:31:07Z,42.805,6.029,13.2969,4.59976,2469.993,2019-12-19T11:31:37Z
2019-12-19T09:34:10Z,42.805,6.029,13.2968,4.59979,2469.993,2019-12-19T11:34:41Z
2019-12-19T09:37:13Z,42.805,6.029,13.2971,4.59976,2470.007,2019-12-19T11:37:44Z
2019-12-19T09:40:17Z,42.805,6.029,13.2969,4.59997,2470.017,2019-12-19T11:40:47Z
2019-12-19T09:43:20Z,42.805,6.029,13.2970,4.59974,2470.007,2019-12-19T11:43:50Z
2019-12-19T09:46:23Z,42.805,6.029,13.2974,4.59978,2469.97,2019-12-19T11:46:53Z
2019-12-19T09:49:26Z,42.805,6.029,13.2967,4.59975,2470.017,2019-12-19T11:49:57Z
2019-12-19T09:52:29Z,42.805,6.029,13.2967,4.59981,2470.017,2019-12-19T11:53:00Z
2019-12-19T09:55:33Z,42.805,6.029,13.2971,4.59979,2470.03,2019-12-19T11:56:03Z
2019-12-19T09:58:36Z,42.805,6.029,13.2968,4.59976,2470.03,2019-12-19T11:59:06Z
2019-12-19T10:01:39Z,42.805,6.029,13.2970,4.59979,2470.017,2019-12-19T12:02:09Z
2019-12-19T10:04:42Z,42.805,6.029,13.2968,4.59982,2470.03,2019-12-19T12:05:13Z
2019-12-19T10:07:45Z,42.805,6.029,13.2974,4.59982,2470.017,2019-12-19T12:08:16Z
2019-12-19T10:10:49Z,42.805,6.029,13.2967,4.59975,2470.053,2019-12-19T12:11:19Z
2019-12-19T10:13:52Z,42.805,6.029,13.2964,4.59979,2470.03,2019-12-19T12:14:22Z
2019-12-19T10:16:55Z,42.805,6.029,13.2968,4.59973,2470.017,2019-12-19T12:17:25Z
2019-12-19T10:19:58Z,42.805,6.029,13.2970,4.59980,2470.053,2019-12-19T12:20:29Z
2019-12-19T10:23:01Z,42.805,6.029,13.2971,4.59976,2470.03,2019-12-19T12:23:32Z
2019-12-19T10:26:05Z,42.805,6.029,13.2965,4.59988,2470.007,2019-12-19T12:26:35Z
2019-12-19T10:29:08Z,42.805,6.029,13.2966,4.59981,2470.003,2019-12-19T12:29:38Z
2019-12-19T10:32:11Z,42.805,6.029,13.2968,4.59984,2470.017,2019-12-19T12:32:42Z
2019-12-19T10:35:14Z,42.805,6.029,13.2971,4.59986,2470.04,2019-12-19T12:35:45Z
2019-12-19T10:38:18Z,42.805,6.029,13.2964,4.59976,2470.053,2019-12-19T12:38:48Z
2019-12-19T10:41:21Z,42.805,6.029,13.2970,4.59976,2470.053,2019-12-19T12:41:51Z
2019-12-19T10:44:24Z,42.805,6.029,13.2968,4.59976,2470.03,2019-12-19T12:44:54Z
2019-12-19T10:47:27Z,42.805,6.029,13.2973,4.59981,2470.04,2019-12-19T12:47:57Z
2019-12-19T10:50:30Z,42.805,6.029,13.2969,4.59980,2470.053,2019-12-19T12:51:01Z
2019-12-19T10:53:33Z,42.805,6.029,13.2966,4.59984,2470.04,2019-12-19T12:54:04Z
2019-12-19T10:56:37Z,42.805,6.029,13.2968,4.59978,2470.04,2019-12-19T12:57:07Z
2019-12-19T10:59:40Z,42.805,6.029,13.2966,4.59981,2470.077,2019-12-19T13:00:10Z
2019-12-19T11:02:43Z,42.805,6.029,13.2971,4.59971,2470.017,2019-12-19T13:03:13Z
2019-12-19T11:05:46Z,42.805,6.029,13.2970,4.59973,2470.053,2019-12-19T13:06:17Z
2019-12-19T11:08:49Z,42.805,6.029,13.2973,4.59976,2470.04,2019-12-19T13:09:20Z
2019-12-19T11:11:53Z,42.805,6.029,13.2969,4.59975,2470.04,2019-12-19T13:12:23Z
2019-12-19T11:14:56Z,42.805,6.029,13.2971,4.59978,2470.053,2019-12-19T13:15:26Z
2019-12-19T11:17:59Z,42.805,6.029,13.2971,4.59977,2470.077,2019-12-19T13:18:30Z
2019-12-19T11:21:02Z,42.805,6.029,13.2969,4.59979,2470.077,2019-12-19T13:21:33Z
2019-12-19T11:24:05Z,42.805,6.029,13.2970,4.59979,2470.063,2019-12-19T13:24:36Z
2019-12-19T11:27:09Z,42.805,6.029,13.2969,4.59976,2470.053,2019-12-19T13:27:39Z
2019-12-19T11:30:12Z,42.805,6.029,13.2966,4.59975,2470.063,2019-12-19T13:30:42Z
2019-12-19T11:33:15Z,42.805,6.029,13.2971,4.59976,2470.063,2019-12-19T13:33:45Z
2019-12-19T11:36:18Z,42.805,6.029,13.2973,4.59979,2470.1,2019-12-19T13:36:49Z
2019-12-19T11:39:22Z,42.805,6.029,13.2967,4.59971,2470.077,2019-12-19T13:39:52Z
2019-12-19T11:42:25Z,42.805,6.029,13.2969,4.59975,2470.053,2019-12-19T13:42:55Z
2019-12-19T11:45:28Z,42.805,6.029,13.2966,4.59977,2470.063,2019-12-19T13:45:58Z
2019-12-19T11:48:31Z,42.805,6.029,13.2971,4.59987,2470.087,2019-12-19T13:49:02Z
2019-12-19T11:51:34Z,42.805,6.029,13.2965,4.59983,2470.063,2019-12-19T13:52:05Z
2019-12-19T11:54:38Z,42.805,6.029,13.2974,4.59978,2470.063,2019-12-19T13:55:08Z
2019-12-19T11:57:41Z,42.805,6.029,13.2971,4.59981,2470.087,2019-12-19T13:58:11Z
2019-12-19T12:00:44Z,42.805,6.029,13.2973,4.59976,2470.077,2019-12-19T14:01:14Z
2019-12-19T12:03:47Z,42.805,6.029,13.2976,4.59978,2470.087,2019-12-19T14:04:18Z
2019-12-19T12:06:50Z,42.805,6.029,13.2969,4.59975,2470.1,2019-12-19T14:07:21Z
2019-12-19T12:09:54Z,42.805,6.029,13.2968,4.59971,2470.063,2019-12-19T14:10:24Z
2019-12-19T12:12:57Z,42.805,6.029,13.2969,4.59976,2470.077,2019-12-19T14:13:27Z
2019-12-19T12:16:00Z,42.805,6.029,13.2969,4.59973,2470.077,2019-12-19T14:16:30Z
2019-12-19T12:19:03Z,42.805,6.029,13.2971,4.59985,2470.087,2019-12-19T14:19:34Z
2019-12-19T12:22:06Z,42.805,6.029,13.2966,4.59971,2470.087,2019-12-19T14:22:37Z
2019-12-19T12:25:10Z,42.805,6.029,13.2970,4.59970,2470.1,2019-12-19T14:25:40Z
2019-12-19T12:28:13Z,42.805,6.029,13.2971,4.59981,2470.087,2019-12-19T14:28:43Z
2019-12-19T12:31:16Z,42.805,6.029,13.2974,4.59989,2470.124,2019-12-19T14:31:46Z
2019-12-19T12:34:19Z,42.805,6.029,13.2968,4.59972,2470.063,2019-12-19T14:34:50Z
2019-12-19T12:37:23Z,42.805,6.029,13.2969,4.59981,2470.049,2019-12-19T14:37:53Z
2019-12-19T12:40:26Z,42.805,6.029,13.2970,4.59972,2470.087,2019-12-19T14:40:56Z
2019-12-19T12:43:29Z,42.805,6.029,13.2966,4.59976,2470.11,2019-12-19T14:43:59Z
2019-12-19T12:46:32Z,42.805,6.029,13.2969,4.59975,2470.1,2019-12-19T14:47:02Z
2019-12-19T12:49:35Z,42.805,6.029,13.2968,4.59987,2470.087,2019-12-19T14:50:06Z
2019-12-19T12:52:38Z,42.805,6.029,13.2971,4.59974,2470.1,2019-12-19T14:53:09Z
2019-12-19T12:55:42Z,42.805,6.029,13.2967,4.59984,2470.087,2019-12-19T14:56:12Z
2019-12-19T12:58:45Z,42.805,6.029,13.2967,4.59974,2470.063,2019-12-19T14:59:15Z
2019-12-19T13:01:48Z,42.805,6.029,13.2964,4.59972,2470.11,2019-12-19T15:02:18Z
2019-12-19T13:04:51Z,42.805,6.029,13.2966,4.59977,2470.087,2019-12-19T15:05:22Z
2019-12-19T13:07:54Z,42.805,6.029,13.2967,4.59981,2470.087,2019-12-19T15:08:25Z
2019-12-19T13:10:58Z,42.805,6.029,13.2966,4.59969,2470.11,2019-12-19T15:11:28Z
2019-12-19T13:14:01Z,42.805,6.029,13.2967,4.59978,2470.063,2019-12-19T15:14:31Z
2019-12-19T13:17:04Z,42.805,6.029,13.2967,4.59970,2470.087,2019-12-19T15:17:34Z
2019-12-19T13:20:07Z,42.805,6.029,13.2967,4.59972,2470.124,2019-12-19T15:20:37Z
2019-12-19T13:23:10Z,42.805,6.029,13.2971,4.59976,2470.087,2019-12-19T15:23:41Z
2019-12-19T13:26:14Z,42.805,6.029,13.2964,4.59984,2470.1,2019-12-19T15:26:44Z
2019-12-19T13:29:17Z,42.805,6.029,13.2971,4.59971,2470.063,2019-12-19T15:29:47Z
2019-12-19T13:32:20Z,42.805,6.029,13.2966,4.59977,2470.053,2019-12-19T15:32:50Z
2019-12-19T13:35:23Z,42.805,6.029,13.2964,4.59990,2470.087,2019-12-19T15:35:53Z
2019-12-19T13:38:26Z,42.805,6.029,13.2967,4.59974,2470.063,2019-12-19T15:38:57Z
2019-12-19T13:41:29Z,42.805,6.029,13.2966,4.59978,2470.077,2019-12-19T15:42:00Z
2019-12-19T13:44:33Z,42.805,6.029,13.2971,4.59978,2470.087,2019-12-19T15:45:03Z
2019-12-19T13:47:36Z,42.805,6.029,13.2969,4.59979,2470.063,2019-12-19T15:48:06Z
2019-12-19T13:50:39Z,42.805,6.029,13.2968,4.59974,2470.077,2019-12-19T15:51:09Z
2019-12-19T13:53:42Z,42.805,6.029,13.2970,4.59981,2470.1,2019-12-19T15:54:13Z
2019-12-19T13:56:45Z,42.805,6.029,13.2972,4.59977,2470.077,2019-12-19T15:57:16Z
2019-12-19T13:59:49Z,42.805,6.029,13.2966,4.59979,2470.063,2019-12-19T16:00:19Z
2019-12-19T14:02:52Z,42.805,6.029,13.2971,4.59977,2470.04,2019-12-19T16:03:22Z
2019-12-19T14:05:55Z,42.805,6.029,13.2968,4.59973,2470.1,2019-12-19T16:06:26Z
2019-12-19T14:08:58Z,42.805,6.029,13.2974,4.59994,2470.063,2019-12-19T16:09:29Z
2019-12-19T14:12:02Z,42.805,6.029,13.2970,4.59988,2470.063,2019-12-19T16:12:32Z
2019-12-19T14:15:05Z,42.805,6.029,13.2965,4.59978,2470.063,2019-12-19T16:15:35Z
2019-12-19T14:18:08Z,42.805,6.029,13.2968,4.59972,2470.077,2019-12-19T16:18:38Z
2019-12-19T14:21:11Z,42.805,6.029,13.2967,4.59991,2470.063,2019-12-19T16:21:41Z
2019-12-19T14:24:14Z,42.805,6.029,13.2967,4.59981,2470.063,2019-12-19T16:24:45Z
2019-12-19T14:27:17Z,42.805,6.029,13.2968,4.59976,2470.077,2019-12-19T16:27:48Z
2019-12-19T14:30:21Z,42.805,6.029,13.2973,4.60001,2470.063,2019-12-19T16:30:51Z
2019-12-19T14:33:24Z,42.805,6.029,13.2965,4.59979,2470.063,2019-12-19T16:33:54Z
2019-12-19T14:36:27Z,42.805,6.029,13.2962,4.59980,2470.053,2019-12-19T16:36:58Z
2019-12-19T14:39:30Z,42.805,6.029,13.2967,4.59973,2470.077,2019-12-19T16:40:01Z
2019-12-19T14:42:34Z,42.805,6.029,13.2972,4.59981,2470.063,2019-12-19T16:43:04Z
2019-12-19T14:45:37Z,42.805,6.029,13.2973,4.59973,2470.04,2019-12-19T16:46:07Z
2019-12-19T14:48:40Z,42.805,6.029,13.2966,4.59976,2470.077,2019-12-19T16:49:10Z
2019-12-19T14:51:43Z,42.805,6.029,13.2968,4.59977,2470.04,2019-12-19T16:52:14Z
2019-12-19T14:54:46Z,42.805,6.029,13.2970,4.59979,2470.063,2019-12-19T16:55:17Z
2019-12-19T14:57:50Z,42.805,6.029,13.2973,4.59976,2470.053,2019-12-19T16:58:20Z
2019-12-19T15:00:53Z,42.805,6.029,13.2969,4.59971,2470.063,2019-12-19T17:01:23Z